timestamp,wind_dir_avg,wind_spd_max_dir,wind_spd_avg,wind_spd_gust,battery_voltage,lat,long
2019-01-30 00:00:00+00:00,4.0,5.0,7.18,8.34,,47.59359,-54.27349
2019-01-30 00:10:00+00:00,2.0,348.0,6.41,7.49,,47.59359,-54.27349
2019-01-30 00:20:00+00:00,355.0,354.0,6.67,7.77,,47.59359,-54.27349
2019-01-30 00:30:00+00:00,2.0,2.0,6.86,7.7,,47.59359,-54.27349
2019-01-30 00:40:00+00:00,12.0,11.0,6.18,7.49,,47.59359,-54.27349
2019-01-30 00:50:00+00:00,27.0,21.0,5.98,6.84,,47.59359,-54.27349
2019-01-30 01:00:00+00:00,37.0,38.0,4.97,5.64,,47.59359,-54.27349
2019-01-30 01:10:00+00:00,23.0,31.0,5.22,6.33,,47.59359,-54.27349
2019-01-30 01:20:00+00:00,15.0,16.0,6.28,7.04,,47.59359,-54.27349
2019-01-30 01:30:00+00:00,352.0,352.0,4.5,5.27,,47.59359,-54.27349
2019-01-30 01:40:00+00:00,3.0,13.0,3.99,4.62,,47.59359,-54.27349
2019-01-30 01:50:00+00:00,349.0,355.0,4.4,5.15,,47.59359,-54.27349
2019-01-30 02:00:00+00:00,12.0,14.0,4.77,5.24,,47.59359,-54.27349
2019-01-30 02:10:00+00:00,2.0,14.0,3.17,3.99,,47.59359,-54.27349
2019-01-30 02:20:00+00:00,10.0,10.0,4.24,4.58,,47.59359,-54.27349
2019-01-30 02:30:00+00:00,355.0,350.0,4.98,5.89,,47.59359,-54.27349
2019-01-30 02:40:00+00:00,340.0,338.0,5.03,5.59,,47.59359,-54.27349
2019-01-30 02:50:00+00:00,1.0,35.0,4.54,5.94,,47.59359,-54.27349
2019-01-30 03:00:00+00:00,32.0,43.0,8.88,9.95,,47.59359,-54.27349
2019-01-30 03:10:00+00:00,23.0,25.0,8.64,10.09,,47.59359,-54.27349
2019-01-30 03:20:00+00:00,40.0,38.0,9.65,10.95,,47.59359,-54.27349
2019-01-30 03:30:00+00:00,34.0,40.0,8.74,10.1,,47.59359,-54.27349
2019-01-30 03:40:00+00:00,35.0,43.0,9.72,11.04,,47.59359,-54.27349
2019-01-30 03:50:00+00:00,35.0,40.0,10.0,11.23,,47.59359,-54.27349
2019-01-30 04:00:00+00:00,43.0,50.0,8.45,10.11,,47.59359,-54.27349
2019-01-30 04:10:00+00:00,34.0,37.0,7.76,9.12,,47.59359,-54.27349
2019-01-30 04:20:00+00:00,32.0,31.0,7.0,8.45,,47.59359,-54.27349
2019-01-30 04:30:00+00:00,49.0,37.0,5.45,6.99,,47.59359,-54.27349
2019-01-30 04:40:00+00:00,47.0,43.0,6.18,7.14,,47.59359,-54.27349
2019-01-30 04:50:00+00:00,37.0,49.0,6.11,6.92,,47.59359,-54.27349
2019-01-30 05:00:00+00:00,49.0,46.0,7.81,9.77,,47.59359,-54.27349
2019-01-30 05:10:00+00:00,55.0,66.0,7.35,8.47,,47.59359,-54.27349
2019-01-30 05:20:00+00:00,38.0,37.0,7.97,9.22,,47.59359,-54.27349
2019-01-30 05:30:00+00:00,48.0,40.0,6.77,7.96,,47.59359,-54.27349
2019-01-30 05:40:00+00:00,40.0,41.0,7.22,7.92,,47.59359,-54.27349
2019-01-30 05:50:00+00:00,39.0,37.0,8.38,9.52,,47.59359,-54.27349
2019-01-30 06:00:00+00:00,38.0,38.0,7.56,8.4,,47.59359,-54.27349
2019-01-30 06:10:00+00:00,37.0,38.0,7.88,9.72,,47.59359,-54.27349
2019-01-30 06:20:00+00:00,37.0,36.0,8.49,9.83,,47.59359,-54.27349
2019-01-30 06:30:00+00:00,47.0,47.0,8.54,9.83,,47.59359,-54.27349
2019-01-30 06:40:00+00:00,45.0,48.0,7.6,9.32,,47.59359,-54.27349
2019-01-30 06:50:00+00:00,49.0,56.0,8.79,9.98,,47.59359,-54.27349
2019-01-30 07:00:00+00:00,54.0,54.0,9.67,11.97,,47.59359,-54.27349
2019-01-30 07:10:00+00:00,67.0,70.0,11.23,12.74,,47.59359,-54.27349
2019-01-30 07:20:00+00:00,77.0,81.0,9.81,11.19,,47.59359,-54.27349
2019-01-30 07:30:00+00:00,71.0,73.0,10.5,12.12,,47.59359,-54.27349
2019-01-30 07:40:00+00:00,61.0,63.0,11.07,12.79,,47.59359,-54.27349
2019-01-30 07:50:00+00:00,63.0,62.0,9.13,12.22,,47.59359,-54.27349
2019-01-30 08:00:00+00:00,60.0,60.0,9.03,10.51,,47.59359,-54.27349
2019-01-30 08:10:00+00:00,71.0,69.0,9.43,10.81,,47.59359,-54.27349
2019-01-30 08:20:00+00:00,70.0,76.0,9.91,11.16,,47.59359,-54.27349
2019-01-30 08:30:00+00:00,73.0,70.0,9.95,11.31,,47.59359,-54.27349
2019-01-30 08:40:00+00:00,62.0,67.0,8.4,11.18,,47.59359,-54.27349
2019-01-30 08:50:00+00:00,73.0,74.0,7.97,10.3,,47.59359,-54.27349
2019-01-30 09:00:00+00:00,71.0,82.0,7.87,9.13,,47.59359,-54.27349
2019-01-30 09:10:00+00:00,60.0,58.0,7.28,8.63,,47.59359,-54.27349
2019-01-30 09:20:00+00:00,83.0,86.0,5.72,6.68,,47.59359,-54.27349
2019-01-30 09:30:00+00:00,76.0,75.0,5.08,7.08,,47.59359,-54.27349
2019-01-30 09:40:00+00:00,85.0,85.0,4.98,5.83,,47.59359,-54.27349
2019-01-30 09:50:00+00:00,67.0,74.0,4.43,5.71,,47.59359,-54.27349
2019-01-30 10:00:00+00:00,72.0,70.0,4.68,5.31,,47.59359,-54.27349
2019-01-30 10:10:00+00:00,71.0,70.0,4.44,4.95,,47.59359,-54.27349
2019-01-30 10:20:00+00:00,75.0,65.0,4.16,5.38,,47.59359,-54.27349
2019-01-30 10:30:00+00:00,65.0,62.0,3.82,4.52,,47.59359,-54.27349
2019-01-30 10:40:00+00:00,58.0,54.0,4.02,5.31,,47.59359,-54.27349
2019-01-30 10:50:00+00:00,66.0,63.0,4.57,5.49,,47.59359,-54.27349
2019-01-30 11:00:00+00:00,70.0,77.0,4.2,4.82,,47.59359,-54.27349
2019-01-30 11:10:00+00:00,82.0,84.0,4.41,4.84,,47.59359,-54.27349
2019-01-30 11:20:00+00:00,78.0,82.0,3.95,4.81,,47.59359,-54.27349
2019-01-30 11:30:00+00:00,78.0,80.0,4.86,5.49,,47.59359,-54.27349
2019-01-30 11:40:00+00:00,71.0,83.0,5.78,7.01,,47.59359,-54.27349
2019-01-30 11:50:00+00:00,60.0,63.0,6.07,7.2,,47.59359,-54.27349
2019-01-30 12:00:00+00:00,68.0,70.0,6.26,7.23,,47.59359,-54.27349
2019-01-30 12:10:00+00:00,62.0,58.0,6.18,7.49,,47.59359,-54.27349
2019-01-30 12:20:00+00:00,62.0,49.0,5.73,7.24,,47.59359,-54.27349
2019-01-30 12:30:00+00:00,67.0,74.0,6.8,7.56,,47.59359,-54.27349
2019-01-30 12:40:00+00:00,70.0,68.0,6.08,6.8,,47.59359,-54.27349
2019-01-30 12:50:00+00:00,68.0,68.0,6.96,7.89,,47.59359,-54.27349
2019-01-30 13:00:00+00:00,76.0,75.0,6.52,7.7,,47.59359,-54.27349
2019-01-30 13:10:00+00:00,76.0,76.0,7.31,7.85,,47.59359,-54.27349
2019-01-30 13:20:00+00:00,81.0,81.0,7.52,8.48,,47.59359,-54.27349
2019-01-30 13:30:00+00:00,89.0,103.0,5.34,7.73,,47.59359,-54.27349
2019-01-30 13:40:00+00:00,88.0,80.0,4.98,6.8,,47.59359,-54.27349
2019-01-30 13:50:00+00:00,98.0,123.0,5.78,8.63,,47.59359,-54.27349
2019-01-30 14:00:00+00:00,84.0,89.0,6.52,8.47,,47.59359,-54.27349
2019-01-30 14:10:00+00:00,85.0,87.0,6.38,8.43,,47.59359,-54.27349
2019-01-30 14:20:00+00:00,94.0,96.0,5.71,7.66,,47.59359,-54.27349
2019-01-30 14:30:00+00:00,100.0,99.0,6.8,9.54,,47.59359,-54.27349
2019-01-30 14:40:00+00:00,94.0,95.0,4.97,7.19,,47.59359,-54.27349
2019-01-30 14:50:00+00:00,93.0,87.0,6.15,8.66,,47.59359,-54.27349
2019-01-30 15:00:00+00:00,116.0,126.0,5.85,9.07,,47.59359,-54.27349
2019-01-30 15:10:00+00:00,95.0,90.0,4.5,6.66,,47.59359,-54.27349
2019-01-30 15:20:00+00:00,90.0,86.0,4.97,6.91,,47.59359,-54.27349
2019-01-30 15:30:00+00:00,91.0,79.0,5.95,7.96,,47.59359,-54.27349
2019-01-30 15:40:00+00:00,89.0,89.0,5.29,8.43,,47.59359,-54.27349
2019-01-30 15:50:00+00:00,98.0,105.0,5.41,8.12,,47.59359,-54.27349
2019-01-30 16:00:00+00:00,93.0,77.0,4.55,7.81,,47.59359,-54.27349
2019-01-30 16:10:00+00:00,94.0,87.0,4.96,6.73,,47.59359,-54.27349
2019-01-30 16:20:00+00:00,100.0,105.0,5.6,8.99,,47.59359,-54.27349
2019-01-30 16:30:00+00:00,88.0,85.0,5.67,7.28,,47.59359,-54.27349
2019-01-30 16:40:00+00:00,88.0,79.0,5.92,7.78,,47.59359,-54.27349
2019-01-30 16:50:00+00:00,86.0,89.0,6.68,7.91,,47.59359,-54.27349
2019-01-30 17:00:00+00:00,99.0,66.0,3.64,5.74,,47.59359,-54.27349
2019-01-30 17:10:00+00:00,87.0,73.0,5.15,6.79,,47.59359,-54.27349
2019-01-30 17:20:00+00:00,91.0,74.0,4.88,6.94,,47.59359,-54.27349
2019-01-30 17:30:00+00:00,92.0,89.0,5.43,7.47,,47.59359,-54.27349
2019-01-30 17:40:00+00:00,106.0,114.0,4.2,7.09,,47.59359,-54.27349
2019-01-30 17:50:00+00:00,96.0,102.0,4.66,7.69,,47.59359,-54.27349
2019-01-30 18:00:00+00:00,92.0,86.0,4.34,7.72,,47.59359,-54.27349
2019-01-30 18:10:00+00:00,95.0,105.0,4.84,7.68,,47.59359,-54.27349
2019-01-30 18:20:00+00:00,122.0,94.0,3.88,6.95,,47.59359,-54.27349
2019-01-30 18:30:00+00:00,112.0,133.0,5.14,8.19,,47.59359,-54.27349
2019-01-30 18:40:00+00:00,108.0,111.0,5.12,8.58,,47.59359,-54.27349
2019-01-30 18:50:00+00:00,104.0,102.0,4.36,7.79,,47.59359,-54.27349
2019-01-30 19:00:00+00:00,123.0,128.0,3.87,6.29,,47.59359,-54.27349
2019-01-30 19:10:00+00:00,101.0,112.0,3.97,6.44,,47.59359,-54.27349
2019-01-30 19:20:00+00:00,98.0,94.0,4.59,6.66,,47.59359,-54.27349
2019-01-30 19:30:00+00:00,107.0,113.0,4.06,6.08,,47.59359,-54.27349
2019-01-30 19:40:00+00:00,91.0,83.0,5.68,7.41,,47.59359,-54.27349
2019-01-30 19:50:00+00:00,93.0,105.0,5.0,7.16,,47.59359,-54.27349
2019-01-30 20:00:00+00:00,90.0,95.0,4.79,6.51,,47.59359,-54.27349
2019-01-30 20:10:00+00:00,91.0,98.0,5.44,7.69,,47.59359,-54.27349
2019-01-30 20:20:00+00:00,95.0,80.0,5.15,6.94,,47.59359,-54.27349
2019-01-30 20:30:00+00:00,119.0,134.0,4.6,7.23,,47.59359,-54.27349
2019-01-30 20:40:00+00:00,107.0,110.0,4.93,7.97,,47.59359,-54.27349
2019-01-30 20:50:00+00:00,114.0,115.0,6.6,8.96,,47.59359,-54.27349
2019-01-30 21:00:00+00:00,117.0,118.0,4.28,6.81,,47.59359,-54.27349
2019-01-30 21:10:00+00:00,106.0,73.0,4.06,7.64,,47.59359,-54.27349
2019-01-30 21:20:00+00:00,126.0,125.0,5.56,10.66,,47.59359,-54.27349
2019-01-30 21:30:00+00:00,104.0,119.0,4.35,7.15,,47.59359,-54.27349
2019-01-30 21:40:00+00:00,107.0,119.0,4.11,6.41,,47.59359,-54.27349
2019-01-30 21:50:00+00:00,131.0,142.0,8.7,10.85,,47.59359,-54.27349
2019-01-30 22:00:00+00:00,129.0,136.0,6.72,9.05,,47.59359,-54.27349
2019-01-30 22:10:00+00:00,107.0,141.0,3.35,6.64,,47.59359,-54.27349
2019-01-30 22:20:00+00:00,130.0,129.0,4.64,7.04,,47.59359,-54.27349
2019-01-30 22:30:00+00:00,141.0,147.0,5.48,6.84,,47.59359,-54.27349
2019-01-30 22:40:00+00:00,138.0,141.0,4.42,5.37,,47.59359,-54.27349
2019-01-30 22:50:00+00:00,129.0,130.0,5.67,7.76,,47.59359,-54.27349
2019-01-30 23:00:00+00:00,135.0,133.0,5.69,7.07,,47.59359,-54.27349
2019-01-30 23:10:00+00:00,110.0,101.0,3.67,5.71,,47.59359,-54.27349
2019-01-30 23:20:00+00:00,111.0,95.0,2.68,4.42,,47.59359,-54.27349
2019-01-30 23:30:00+00:00,120.0,125.0,3.76,5.68,,47.59359,-54.27349
2019-01-30 23:40:00+00:00,124.0,109.0,3.16,4.61,,47.59359,-54.27349
2019-01-30 23:50:00+00:00,136.0,131.0,4.54,5.54,,47.59359,-54.27349
